This is the latest recevied weather packets stored in our database for station/object NEWPRT. If no packets are shown the sender has not sent any weather packets the latest 10 day(s).
| Time | Temp. | Humidity | Pressure | Rain* | Wind** | Luminosity | Snow |
|---|---|---|---|---|---|---|---|
| 1777476416 | - | 44% | 1025.4 hPa | 0 mm | - | - | - |
| 1777476093 | - | 43% | 1025.4 hPa | 0 mm | - | - | - |
| 1777475770 | - | 48% | 1025.3 hPa | 0 mm | - | - | - |
| 1777475447 | - | 50% | 1025.3 hPa | 0 mm | - | - | - |
| 1777475125 | - | 50% | 1025.3 hPa | 0 mm | - | - | - |
| 1777474801 | - | 52% | 1025.3 hPa | 0 mm | - | - | - |
| 1777474478 | - | 51% | 1024.8 hPa | 0 mm | - | - | - |
| 1777474155 | - | 55% | 1025.1 hPa | 0 mm | - | - | - |
| 1777473832 | - | 57% | 1025.2 hPa | 0 mm | - | - | - |
| 1777473510 | - | 57% | 1025.1 hPa | 0 mm | - | - | - |
| 1777473186 | - | 58% | 1025 hPa | 0 mm | - | - | - |
| 1777472863 | - | 58% | 1025.2 hPa | 0 mm | - | - | - |
| 1777472540 | - | 57% | 1025.2 hPa | 0 mm | - | - | - |
| 1777472217 | - | 58% | 1025.3 hPa | 0 mm | - | - | - |
| 1777471894 | - | 58% | 1025 hPa | 0 mm | - | - | - |
| 1777471571 | - | 59% | 1025.2 hPa | 0 mm | - | - | - |
| 1777471248 | - | 59% | 1025.2 hPa | 0 mm | - | - | - |
| 1777470925 | - | 59% | 1025.1 hPa | 0 mm | - | - | - |
| 1777470602 | - | 59% | 1025.1 hPa | 0 mm | - | - | - |
| 1777470279 | - | 58% | 1025.1 hPa | 0 mm | - | - | - |
| 1777469956 | - | 59% | 1025.2 hPa | 0 mm | - | - | - |
| 1777469633 | - | 59% | 1025.1 hPa | 0 mm | - | - | - |
| 1777469312 | - | 59% | 1025.1 hPa | 0 mm | - | - | - |
| 1777468987 | - | 59% | 1025 hPa | 0 mm | - | - | - |
| 1777468664 | - | 59% | 1025.2 hPa | 0 mm | - | - | - |
* Rain latest hour (hover to see other rain measurements)
** Current wind speed in m/s (hover to see current wind gust speed)